Location: Asheville, NC
(35.6000°N, 82.5500°W)
Time: 18:30:41
(UTC-04:00)

Hubble Space Telescope - Pass Details

Date: 10 March 2018
Orbit: 537 x 541 km, 28.5° (Epoch: 19 June)

Event Time Altitude Azimuth Distance (km) Brightness Sun altitude
Rises 19:39:32 0° 223° (SW) 2,668 4.9 -14.2°
Reaches altitude 10° 19:42:27 10° 202° (SSW) 1,778 3.6 -14.8°
Maximum altitude 19:45:04 16° 162° (SSE) 1,421 2.7 -15.3°
Enters shadow 19:45:54 16° 148° (SSE) 1,461 2.6 -15.5°
